Location: Sunny Point
(33.0946°N, 85.0574°W)
Time: 06:09:41
(UTC+00:00)

ITAMSAT 1 - Visible Passes

Search period start: 16 July 2024 00:00
Search period end: 26 July 2024 00:00
Orbit: 782 x 795 km, 98.8° (Epoch: 15 July)

Date Brightness Start Highest point End Pass type
(mag) Time Alt. Az. Time Alt. Az. Time Alt. Az.
16 Jul 9.2 01:13:07 10° ESE 01:16:42 19° ENE 01:20:18 10° NNE visible
16 Jul 8.6 02:52:35 20° SSW 02:55:45 42° W 03:00:40 10° NNW visible
17 Jul 7.6 02:22:20 21° SSE 02:25:48 86° WSW 02:31:01 10° NNW visible
18 Jul 8.0 01:52:04 16° SE 01:55:59 47° ENE 02:00:55 10° N visible
18 Jul 10.0 03:32:46 11° SW 03:35:34 16° W 03:38:47 10° NW visible
19 Jul 8.9 01:22:14 10° ESE 01:26:16 24° ENE 01:30:20 10° NNE visible
19 Jul 9.0 03:02:30 19° SSW 03:05:27 33° W 03:10:08 10° NW visible
20 Jul 7.8 02:32:14 23° S 02:35:28 69° WSW 02:40:39 10° NNW visible
21 Jul 7.8 02:01:59 19° SSE 02:05:36 58° ENE 02:10:41 10° N visible
21 Jul 10.1 03:43:01 10° WSW 03:45:19 13° W 03:47:38 10° WNW visible
22 Jul 8.7 01:31:43 11° SE 01:35:51 29° ENE 01:40:16 10° N visible
22 Jul 9.3 03:12:25 17° SW 03:15:10 27° W 03:19:31 10° NW visible
23 Jul 8.2 02:42:09 24° S 02:45:07 55° W 02:50:14 10° NNW visible
24 Jul 7.6 02:11:54 23° SSE 02:15:13 73° ENE 02:20:24 10° N visible
25 Jul 8.4 01:41:39 15° SE 01:45:25 36° ENE 01:50:08 10° N visible
25 Jul 9.6 03:22:21 16° SW 03:24:52 22° W 03:28:49 10° NW visible
